South Beach, OR

3:37 AM PST on December 07, 2016 (GMT -0800)
Newport Municipal

Weather History for KONP - March, 2013

Change the Weather History Date:

Monday, March 4, 2013

  Actual Average Record
Temperature  
Mean Temperature 42 °F -  
Max Temperature 51 °F 49 °F 64 °F (2007)
Min Temperature 33 °F 40 °F 33 °F (2013)
Degree Days  
Heating Degree Days 23    
Moisture  
Dew Point 36 °F    
Average Humidity 81    
Maximum Humidity 100    
Minimum Humidity 54    
Precipitation  
Precipitation 0.00 in - - ()
Sea Level Pressure  
Sea Level Pressure 30.07 in    
Wind  
Wind Speed 9 mph (ESE)    
Max Wind Speed 22 mph    
Max Gust Speed 28 mph    
Visibility 9 miles    
Events      
Averages and records for this station are not official NWS values.
T = Trace of Precipitation, MM = Missing Value Source: NWS Daily Summary

Daily Weather History Graph

Daily Weather History Graph

Search for Another Location

Airport or City:

Trip Planner

Search our weather history database for the weather conditions in past years. The results will help you decide how hot, cold, wet, or windy it might be!

Date:

Astronomy

Mar. 04, 2013 Rise Set
Actual Time 6:47 AM PST 6:08 PM PST
Civil Twilight 6:18 AM PST 6:37 PM PST
Nautical Twilight 5:45 AM PST 7:11 PM PST
Astronomical Twilight 5:11 AM PST 7:45 PM PST
Moon 1:13 AM PST (3/4) 10:45 AM PST (3/4)
Length of Visible Light 12h 19m
Length of Day
11h 20m
Waning Gibbous, 51% of the Moon is Illuminated
Mar 4
Waning Gibbous
Mar 4
Last Quarter
Mar 11
New
Mar 19
First Quarter
Mar 27
Full

Hourly Weather History & Observations

Time (PST) Temp. Windchill Dew Point Humidity Pressure Visibility Wind Dir Wind Speed Gust Speed Precip Events Conditions
12:15 AM 35.6 °F 29.9 °F 33.8 °F 93% 30.23 in 10.0 mi NE 6.9 mph - N/A   Clear
12:35 AM 33.8 °F 27.0 °F 33.8 °F 100% 30.23 in 10.0 mi ENE 8.1 mph - N/A   Clear
12:55 AM 33.8 °F 27.7 °F 33.8 °F 100% 30.23 in 10.0 mi ENE 6.9 mph - N/A   Clear
1:35 AM 33.8 °F 28.6 °F 33.8 °F 100% 30.22 in 10.0 mi ENE 5.8 mph - N/A   Clear
1:55 AM 33.8 °F 27.0 °F 32.0 °F 93% 30.21 in 10.0 mi NE 8.1 mph - N/A   Clear
2:15 AM 33.8 °F 27.7 °F 33.8 °F 100% 30.20 in 10.0 mi NE 6.9 mph - N/A   Clear
2:35 AM 33.8 °F 27.7 °F 33.8 °F 100% 30.20 in 10.0 mi NE 6.9 mph - N/A   Clear
2:55 AM 35.6 °F 30.7 °F 33.8 °F 93% 30.19 in 10.0 mi NE 5.8 mph - N/A   Clear
3:15 AM 35.6 °F 30.7 °F 33.8 °F 93% 30.18 in 10.0 mi NE 5.8 mph - N/A   Clear
3:35 AM 33.8 °F 27.7 °F 33.8 °F 100% 30.17 in 10.0 mi NE 6.9 mph - N/A   Clear
4:15 AM 33.8 °F 28.6 °F 32.0 °F 93% 30.17 in 10.0 mi NE 5.8 mph - N/A   Clear
4:35 AM 33.8 °F 28.6 °F 32.0 °F 93% 30.17 in 10.0 mi NE 5.8 mph - N/A   Clear
4:55 AM 33.8 °F 28.6 °F 32.0 °F 93% 30.16 in 10.0 mi NE 5.8 mph - N/A   Clear
5:15 AM 33.8 °F 27.0 °F 32.0 °F 93% 30.15 in 10.0 mi ENE 8.1 mph - N/A   Clear
5:35 AM 35.6 °F 28.0 °F 33.8 °F 93% 30.14 in 10.0 mi ENE 10.4 mph 16.1 mph N/A   Clear
5:55 AM 37.4 °F 28.9 °F 33.8 °F 87% 30.12 in 10.0 mi East 13.8 mph 19.6 mph N/A   Clear
6:15 AM 37.4 °F 28.9 °F 33.8 °F 87% 30.12 in 10.0 mi East 13.8 mph - N/A   Clear
6:35 AM 37.4 °F 28.5 °F 33.8 °F 87% 30.12 in 10.0 mi East 15.0 mph 19.6 mph N/A   Clear
6:55 AM 37.4 °F 27.8 °F 33.8 °F 87% 30.11 in 10.0 mi East 17.3 mph 23.0 mph N/A   Clear
7:15 AM 37.4 °F 27.5 °F 33.8 °F 87% 30.11 in 10.0 mi East 18.4 mph - N/A   Clear
7:35 AM 37.4 °F 27.2 °F 32.0 °F 81% 30.10 in 10.0 mi East 19.6 mph 24.2 mph N/A   Clear
7:55 AM 37.4 °F 27.2 °F 32.0 °F 81% 30.10 in 10.0 mi East 19.6 mph 24.2 mph N/A   Clear
8:15 AM 39.2 °F 30.8 °F 32.0 °F 75% 30.10 in 10.0 mi ENE 15.0 mph 25.3 mph N/A   Clear
8:35 AM 41.0 °F 33.9 °F 32.0 °F 70% 30.11 in 10.0 mi East 12.7 mph 18.4 mph N/A   Clear
8:55 AM 41.0 °F - 32.0 °F 70% 30.10 in 10.0 mi Calm Calm - N/A   Clear
9:15 AM 42.8 °F 38.0 °F 33.8 °F 70% 30.10 in 10.0 mi East 8.1 mph - N/A   Clear
9:35 AM 42.8 °F 38.0 °F 33.8 °F 70% 30.09 in 10.0 mi East 8.1 mph - N/A   Clear
9:55 AM 44.6 °F 40.2 °F 33.8 °F 66% 30.09 in 10.0 mi ENE 8.1 mph - N/A   Clear
10:15 AM 44.6 °F 41.4 °F 33.8 °F 66% 30.09 in 10.0 mi East 5.8 mph - N/A   Clear
10:35 AM 46.4 °F 44.3 °F 33.8 °F 62% 30.09 in 10.0 mi East 4.6 mph - N/A   Clear
10:55 AM 46.4 °F - 32.0 °F 57% 30.09 in 10.0 mi Calm Calm - N/A   Clear
11:15 AM 48.2 °F - 33.8 °F 58% 30.08 in 10.0 mi Calm Calm - N/A   Clear
11:35 AM 48.2 °F - 35.6 °F 62% 30.08 in 7.0 mi Calm Calm - N/A   Clear
11:55 AM 51.8 °F - 35.6 °F 54% 30.07 in 10.0 mi East 5.8 mph - N/A   Clear
12:15 PM 51.8 °F - 35.6 °F 54% 30.06 in 10.0 mi West 5.8 mph - N/A   Clear
12:35 PM 50.0 °F - 37.4 °F 62% 30.06 in 7.0 mi WSW 6.9 mph - N/A   Clear
12:55 PM 50.0 °F - 35.6 °F 58% 30.06 in 10.0 mi SSW 8.1 mph - N/A   Clear
1:15 PM 50.0 °F - 35.6 °F 58% 30.06 in 10.0 mi SSW 9.2 mph - N/A   Clear
1:35 PM 50.0 °F - 41.0 °F 71% 30.04 in 10.0 mi SW 17.3 mph - N/A   Clear
1:55 PM 50.0 °F - 42.8 °F 76% 30.03 in 7.0 mi SSW 12.7 mph - N/A   Clear
2:15 PM 50.0 °F - 42.8 °F 76% 30.04 in 7.0 mi SSW 15.0 mph - N/A   Clear
2:35 PM 50.0 °F - 42.8 °F 76% 30.03 in 10.0 mi SSW 15.0 mph 20.7 mph N/A   Clear
2:55 PM 50.0 °F - 42.8 °F 76% 30.03 in 10.0 mi SSW 15.0 mph 19.6 mph N/A   Clear
3:15 PM 50.0 °F - 42.8 °F 76% 30.02 in 7.0 mi SW 16.1 mph 21.9 mph N/A   Clear
3:35 PM 50.0 °F - 42.8 °F 76% 30.02 in 7.0 mi SSW 19.6 mph 26.5 mph N/A   Clear
3:55 PM 50.0 °F - 42.8 °F 76% 30.02 in 7.0 mi SSW 17.3 mph - N/A   Clear
4:15 PM 50.0 °F - 42.8 °F 76% 30.02 in 7.0 mi SSW 18.4 mph 26.5 mph N/A   Clear
4:35 PM 50.0 °F - 42.8 °F 76% 30.02 in 7.0 mi SSW 20.7 mph 27.6 mph N/A   Scattered Clouds
4:55 PM 48.2 °F - 41.0 °F 76% 30.01 in 7.0 mi South 21.9 mph 27.6 mph N/A   Mostly Cloudy
5:15 PM 46.4 °F 39.2 °F 41.0 °F 81% 30.01 in 7.0 mi SSW 18.4 mph 24.2 mph N/A   Scattered Clouds
5:35 PM 46.4 °F 38.7 °F 41.0 °F 81% 30.01 in 7.0 mi South 20.7 mph 25.3 mph N/A   Scattered Clouds
5:55 PM 46.4 °F 39.5 °F 41.0 °F 81% 30.01 in 7.0 mi SSW 17.3 mph 23.0 mph N/A   Scattered Clouds
6:35 PM 44.6 °F 38.8 °F 39.2 °F 81% 30.00 in 10.0 mi South 11.5 mph - N/A   Scattered Clouds
6:55 PM 44.6 °F 37.8 °F 39.2 °F 81% 29.99 in 10.0 mi South 15.0 mph - N/A   Scattered Clouds
7:15 PM 42.8 °F 38.0 °F 37.4 °F 81% 29.99 in 10.0 mi South 8.1 mph - N/A   Clear
7:35 PM 42.8 °F 37.5 °F 37.4 °F 81% 30.00 in 10.0 mi South 9.2 mph - N/A   Clear
7:55 PM 42.8 °F 38.0 °F 35.6 °F 76% 29.99 in 10.0 mi South 8.1 mph - N/A   Clear
8:15 PM 42.8 °F 39.3 °F 35.6 °F 76% - 10.0 mi SSE 5.8 mph - N/A   Clear
8:55 PM 41.0 °F - 35.6 °F 81% 29.97 in 10.0 mi Calm Calm - N/A   Clear
9:15 PM 39.2 °F 35.0 °F 35.6 °F 87% 29.96 in 10.0 mi East 5.8 mph - N/A   Clear
9:35 PM 39.2 °F 37.0 °F 35.6 °F 87% 29.96 in 10.0 mi East 3.5 mph - N/A   Clear
9:55 PM 39.2 °F 35.0 °F 35.6 °F 87% 29.95 in 10.0 mi East 5.8 mph - N/A   Clear
10:15 PM 39.2 °F 35.0 °F 37.4 °F 93% 29.95 in 10.0 mi East 5.8 mph - N/A   Clear
10:35 PM 39.2 °F 34.2 °F 37.4 °F 93% 29.94 in 10.0 mi East 6.9 mph - N/A   Clear
10:55 PM 39.2 °F 34.2 °F 37.4 °F 93% 29.93 in 10.0 mi East 6.9 mph - N/A   Scattered Clouds
11:15 PM 37.4 °F 30.8 °F 35.6 °F 93% 29.92 in 10.0 mi East 9.2 mph - N/A   Scattered Clouds
11:35 PM 39.2 °F 34.2 °F 37.4 °F 93% 29.91 in 10.0 mi East 6.9 mph - N/A   Mostly Cloudy
11:55 PM 41.0 °F 37.1 °F 35.6 °F 81% 29.91 in 10.0 mi East 5.8 mph - N/A   Overcast